Preview of NWS' New Version of Forecast
This preview is not operational and should not be used for support decisions.

Regional Weather Roundup (RWR)

Issued by National Weather Service (NWS)

                            
000
ASUS45 KBOU 210810
RWRCO 

WEATHER ROUNDUP FOR COLORADO
NATIONAL WEATHER SERVICE DENVER/BOULDER CO
200 AM MDT SUN APR 21 2019

NOTE: "FAIR" INDICATES FEW OR NO CLOUDS BELOW 12000 FEET WITH NO
SIGNIFICANT WEATHER AND/OR OBSTRUCTIONS TO VISIBILITY.

COZ001>005-013-030-031-210900-
...NORTHWEST COLORADO...
  
CITY           SKY/WX    TMP DP  RH WIND       PRES   REMARKS
CRAIG          FAIR      42  31  64 CALM      29.86F                  
HAYDEN         FAIR      48  30  49 E9        29.89S                  
MEEKER         FAIR      43  30  60 N8        29.86F                  
RANGELY        FAIR      47  32  55 SE9       29.82S                  
RABBIT EARS PA NOT AVBL                                               
STEAMBOAT SPGS MOCLDY    41  30  65 NW5       29.90S                  
WALDEN         CLOUDY    37  28  70 E6        29.97S                  
$$

COZ006>008-011-210900-
...WEST CENTRAL VALLEYS...
  
CITY           SKY/WX    TMP DP  RH WIND       PRES   REMARKS
GRAND JUNCTION FAIR      52  34  50 E15       29.81F                  
MONTROSE       FAIR      44  29  55 S7        29.90F                  
EAGLE          FAIR      40  30  67 E5        29.95S                  
RIFLE          FAIR      44  33  65 SE3       29.87S                  
DELTA          FAIR      46  33  59 NE6       29.87F                  
NUCLA          FAIR      48  27  43 E10       29.90F                  
$$

COZ017>023-064>068-210900-
...SOUTHWEST COLORADO...
  
CITY           SKY/WX    TMP DP  RH WIND       PRES   REMARKS
DURANGO        CLOUDY    41  27  57 NW3       29.97S                  
CORTEZ         MOCLDY    47  30  51 VRB6G18   29.91F                  
PAGOSA SPRINGS FAIR      37  31  76 W3        30.02F                  
TELLURIDE      MOCLDY    39  27  60 SE7       30.05F                  
WOLF CREEK PAS FAIR      30  21  69 SW13G18   30.20F WCI  20          
$$

COZ009-010-012-014-032>034-037-058>063-210900-
...CENTRAL COLORADO...
  
CITY           SKY/WX    TMP DP  RH WIND       PRES   REMARKS
ASPEN          CLOUDY    39  27  62 CALM      29.95F                  
BUENA VISTA    FAIR      38  26  61 CALM      29.97F                  
COPPER MTN     MOCLDY    34  23  64 MISG      30.12S                  
BERTHOUD PASS  CLOUDY    27  16  63 NW20      30.11S WCI  13          
COTTONWOOD PAS FAIR      37  27  65 N6        30.03F                  
GUNNISON       FAIR      32  29  88 CALM      30.02F                  
GRANBY         FAIR      35  31  82 CALM      29.99F                  
KREMMLING      MOCLDY    45  32  61 CALM      29.96F                  
LEADVILLE      FAIR      31  24  75 NE8       30.03F WCI  23          
MONARCH PASS   FAIR      30  25  80 W24       30.22F WCI  16          
SALIDA         FAIR      43  29  57 NW9       30.02F                  
SUNLIGHT       MOCLDY    32  23  69 SW15G24   30.09F WCI  22          
WILKERSON PASS FAIR      34  21  60 W8        30.09F WCI  27          
$$

COZ069>075-210900-
...SAN LUIS VALLEY/SANGRE DE CRISTO MOUNTAINS...
  
CITY           SKY/WX    TMP DP  RH WIND       PRES   REMARKS
ALAMOSA        FAIR      31  25  78 SE7       29.99R WCI  24          
DEL NORTE      FAIR      37  27  67 W8        30.00S                  
LA VETA PASS   NOT AVBL                                               
SAGUACHE       FAIR      36  28  75 CALM      30.00S                  
$$

COZ035-036-038>040-210900-
...NORTHERN COLORADO FRONT RANGE...
  
CITY           SKY/WX    TMP DP  RH WIND       PRES   REMARKS
DENVER INTL AP MOCLDY    56  30  37 W8        29.76F                  
AURORA         MOCLDY    55  30  39 SW6       29.79S                  
FRONT RANGE AP FAIR      58  32  37 SW8       29.77F                  
ERIE MUNI ARPT FAIR      50  35  55 SW3       29.81S                  
BOULDER MUN AP FAIR      55  30  38 CALM      29.76F                  
CENTENNIAL     MOCLDY    50  30  46 SW9       29.79F                  
BROOMFIELD     FAIR      61  28  29 NW12      29.79S                  
FORT COLLINS   MOCLDY    53  36  52 NW6       29.76S                  
LONGMONT       FAIR      56  33  42 S5        29.77F                  
$$

COZ041-046-047-076>085-087-088-210900-
...PIKES PEAK/PALMER DIVIDE AND SOUTHERN FOOTHILLS...
  
CITY           SKY/WX    TMP DP  RH WIND       PRES   REMARKS
COLO. SPRINGS  FAIR      60  24  25 NW13      29.83F                  
A. F. ACADEMY  FAIR      56  24  28 NE8G22    29.82S                  
SCHRIEVER AFB  NOT AVBL                                               
CHEYENNE MTN   FAIR      56  19  23 N7        29.80F                  
ELLICOTT         N/A      1  32 100 N5        29.80F WCI  -9          
FALCON         FAIR      47  25  43 W6        29.86F                  
FORT CARSON    FAIR      55  26  32 NW6       29.81F                  
LIMON          MOCLDY    56  30  37 NW9       29.75F                  
MONUMENT HILL  FAIR      43  30  61 SW10      29.87F                  
CANON CITY     NOT AVBL                                               
WALSENBURG     NOT AVBL                                               
TRINIDAD       FAIR      47  28  47 NW5       29.85S                  
$$

COZ042>045-048>051-090-091-210900-
...NORTHEAST COLORADO...
  
CITY           SKY/WX    TMP DP  RH WIND       PRES   REMARKS
GREELEY ARPT   FAIR      60  32  34 NW13      29.73S                  
AKRON          FAIR      57  35  43 W13       29.68F                  
BURLINGTON     FAIR      59  31  34 SW13      29.67F                  
WRAY           FAIR      57  28  33 W7        29.63F                  
YUMA           NOT AVBL                                               
STERLING       FAIR      55  36  47 CALM      29.66S                  
HOLYOKE        FAIR      52  43  71 CALM      29.63F                  
FORT MORGAN    NOT AVBL                                               
$$

COZ086-089-092>099-210900-
...SOUTHEAST COLORADO...
  
CITY           SKY/WX    TMP DP  RH WIND       PRES   REMARKS
PUEBLO         FAIR      58  32  37 W16       29.76S                  
LA JUNTA       FAIR      60  31  33 W14       29.72S                  
LAMAR          FAIR      57  34  41 SW8       29.67S                  
SPRINGFIELD      N/A     47  33  58 W7        29.74F                  
$$